User: anonymous   Login
Location: Unspecified
(0.0000°N, 0.0000°E)
Time: 15:58:57
(UTC+01:00)
Language:

Cosmos 1538 Rocket - Orbit

View from above orbital plane
View from above orbital plane
View from above satellite
View from above satellite

Ground track
Ground track

The orbit data is extracted from the following two-line orbital elements,

1 14760U 84019B   15060.52583170  .00000389  00000-0  14333-3 0  9990
2 14760 074.0425 220.1458 0028918 285.3768 135.2998 14.35640705623228
Epoch (UTC): 01 March 2015 12:37:11
Eccentricity: 0.0028918
inclination: 74.0425°
perigee height: 752 km
apogee height: 793 km
right ascension of ascending node: 220.1458°
argument of perigee: 285.3768°
revolutions per day: 14.35640705
mean anomaly at epoch: 135.2998°
orbit number at epoch: 62322

The dashed part of the orbit path shows where the satellite is in the earth's shadow,  

DLR